Voltar ao catálogo

STARLINK-37173

AtivoComunicaçõesVLEO
NORAD 68536·PAYLOAD·🇺🇸 United States

Lançado Mar 30, 2026 de Cape Canaveral Space Force Station

Loading…

Próximas Passagens (próximas 24 horas)

TLE

AtualizadoSource: CelesTrak SupGP

Época: Sep 15, 2026, 03:51 UTC

1 68536C 26068AE  26258.16090278  .00036124  00000+0  10670-2 0  2585
2 68536  53.1568 318.9610 0001287 100.9033  44.4938 15.34380561    19

Acompanhe STARLINK-37173 em tempo real com AllMySat

Download on the App Store